N178T KACK-KBID

Flight info

Callsign N178T
Flight time 0h 34m
Altitude 4500
Route WESTBOUND
Aircraft TB21/L-SDRY/S

Departure

Time 2026-04-23 17:21
Airport Nantucket Memorial Airport (KACK)

Arrival

Time 2026-04-23 17:55
Airport Block Island State Airport (KBID)
Time Latitude Longitude Altitude Speed Heading
2026-04-23 17:13 41.25442 -70.06640 49 ft 0 kts 140°
2026-04-23 17:16 41.25438 -70.06636 49 ft 3 kts 137°
2026-04-23 17:17 41.25458 -70.06570 49 ft 13 kts 54°
2026-04-23 17:17 41.25513 -70.06438 49 ft 18 kts 46°
2026-04-23 17:17 41.25612 -70.06312 49 ft 20 kts 54°
2026-04-23 17:17 41.25717 -70.06169 49 ft 21 kts 44°
2026-04-23 17:18 41.25935 -70.05875 49 ft 12 kts 72°
2026-04-23 17:18 41.25974 -70.05768 49 ft 13 kts 54°
2026-04-23 17:18 41.25966 -70.05704 49 ft 0 kts 133°
2026-04-23 17:19 41.25952 -70.05685 49 ft 6 kts 135°
2026-04-23 17:20 41.25894 -70.05671 49 ft 11 kts 201°
2026-04-23 17:20 41.25587 -70.06066 50 ft 70 kts 225°
2026-04-23 17:21 41.24781 -70.06919 457 ft 80 kts 222°
2026-04-23 17:21 41.24425 -70.07471 678 ft 83 kts 258°
2026-04-23 17:21 41.24268 -70.09104 1218 ft 94 kts 275°
2026-04-23 17:22 41.24278 -70.09976 1494 ft 98 kts 279°
2026-04-23 17:22 41.24581 -70.11839 1866 ft 111 kts 294°
2026-04-23 17:23 41.25100 -70.13918 2082 ft 126 kts 289°
2026-04-23 17:23 41.25277 -70.15105 2196 ft 128 kts 288°
2026-04-23 17:23 41.25511 -70.17304 2504 ft 125 kts 283°
2026-04-23 17:24 41.25596 -70.18445 2649 ft 120 kts 282°
2026-04-23 17:24 41.25642 -70.19537 2775 ft 119 kts 279°
2026-04-23 17:24 41.25544 -70.21833 2921 ft 123 kts 275°
2026-04-23 17:25 41.25236 -70.24151 3070 ft 130 kts 264°
2026-04-23 17:25 41.24954 -70.25293 3210 ft 127 kts 262°
2026-04-23 17:26 41.24464 -70.27612 3339 ft 127 kts 269°
2026-04-23 17:26 41.24049 -70.29882 3538 ft 126 kts 265°
2026-04-23 17:27 41.23481 -70.32151 3711 ft 130 kts 259°
2026-04-23 17:27 41.23102 -70.33269 3781 ft 133 kts 255°
2026-04-23 17:27 41.22675 -70.34362 3878 ft 132 kts 254°
2026-04-23 17:27 41.22307 -70.35483 3929 ft 129 kts 262°
2026-04-23 17:28 41.22086 -70.36623 4002 ft 127 kts 269°
2026-04-23 17:28 41.21889 -70.37783 4081 ft 126 kts 269°
2026-04-23 17:28 41.21707 -70.38903 4190 ft 125 kts 269°
2026-04-23 17:28 41.21501 -70.40039 4256 ft 127 kts 267°
2026-04-23 17:29 41.21279 -70.41189 4297 ft 128 kts 267°
2026-04-23 17:29 41.21072 -70.42306 4398 ft 123 kts 268°
2026-04-23 17:29 41.20784 -70.44572 4411 ft 123 kts 274°
2026-04-23 17:30 41.20647 -70.45673 4489 ft 122 kts 270°
2026-04-23 17:30 41.20238 -70.47926 4533 ft 125 kts 267°
2026-04-23 17:30 41.20015 -70.49060 4494 ft 129 kts 268°
2026-04-23 17:31 41.19861 -70.50242 4489 ft 126 kts 271°
2026-04-23 17:31 41.19735 -70.51365 4563 ft 123 kts 272°
2026-04-23 17:31 41.19614 -70.52515 4510 ft 127 kts 273°
2026-04-23 17:31 41.19517 -70.53664 4583 ft 123 kts 271°
2026-04-23 17:32 41.19336 -70.54790 4603 ft 126 kts 268°
2026-04-23 17:32 41.19121 -70.55951 4596 ft 129 kts 267°
2026-04-23 17:32 41.18897 -70.57076 4677 ft 125 kts 265°
2026-04-23 17:32 41.18658 -70.58230 4586 ft 132 kts 267°
2026-04-23 17:33 41.18455 -70.59396 4637 ft 127 kts 269°
2026-04-23 17:33 41.18265 -70.60518 4642 ft 127 kts 269°
2026-04-23 17:33 41.18086 -70.61705 4610 ft 129 kts 271°
2026-04-23 17:33 41.17977 -70.62867 4639 ft 125 kts 275°
2026-04-23 17:34 41.17847 -70.64009 4627 ft 129 kts 270°
2026-04-23 17:34 41.17642 -70.65186 4609 ft 131 kts 266°
2026-04-23 17:34 41.17086 -70.67525 4620 ft 133 kts 261°
2026-04-23 17:35 41.16727 -70.68687 4571 ft 139 kts 257°
2026-04-23 17:35 41.16131 -70.71022 4622 ft 131 kts 266°
2026-04-23 17:35 41.15923 -70.72201 4614 ft 130 kts 268°
2026-04-23 17:36 41.15715 -70.73365 4604 ft 132 kts 266°
2026-04-23 17:36 41.15436 -70.74541 4578 ft 135 kts 261°
2026-04-23 17:36 41.15046 -70.75681 4606 ft 136 kts 253°
2026-04-23 17:36 41.14678 -70.76824 4545 ft 134 kts 265°
2026-04-23 17:37 41.14558 -70.78029 4527 ft 127 kts 279°
2026-04-23 17:37 41.14575 -70.79163 4583 ft 122 kts 281°
2026-04-23 17:37 41.14500 -70.81543 4505 ft 127 kts 276°
2026-04-23 17:38 41.14451 -70.82715 4501 ft 129 kts 276°
2026-04-23 17:38 41.14393 -70.83894 4501 ft 127 kts 276°
2026-04-23 17:38 41.14340 -70.85050 4523 ft 125 kts 277°
2026-04-23 17:38 41.14306 -70.86272 4433 ft 129 kts 278°
2026-04-23 17:39 41.14340 -70.87463 4465 ft 125 kts 281°
2026-04-23 17:39 41.14315 -70.88617 4452 ft 128 kts 276°
2026-04-23 17:39 41.14242 -70.89799 4439 ft 128 kts 274°
2026-04-23 17:39 41.14157 -70.90971 4451 ft 126 kts 275°
2026-04-23 17:40 41.14085 -70.92155 4400 ft 129 kts 276°
2026-04-23 17:40 41.14034 -70.93330 4431 ft 126 kts 278°
2026-04-23 17:40 41.14011 -70.94482 4445 ft 125 kts 278°
2026-04-23 17:40 41.13970 -70.95651 4381 ft 130 kts 277°
2026-04-23 17:41 41.13946 -70.96838 4425 ft 125 kts 279°
2026-04-23 17:41 41.13971 -70.99159 4372 ft 126 kts 282°
2026-04-23 17:41 41.14032 -71.00304 4395 ft 124 kts 282°
2026-04-23 17:42 41.14038 -71.02638 4363 ft 125 kts 279°
2026-04-23 17:42 41.13976 -71.03802 4360 ft 128 kts 275°
2026-04-23 17:42 41.13866 -71.04981 4332 ft 129 kts 275°
2026-04-23 17:43 41.13829 -71.06158 4314 ft 127 kts 279°
2026-04-23 17:43 41.13818 -71.07334 4320 ft 126 kts 279°
2026-04-23 17:43 41.13835 -71.08500 4235 ft 128 kts 282°
2026-04-23 17:43 41.13885 -71.09704 4089 ft 131 kts 281°
2026-04-23 17:44 41.13923 -71.10883 4054 ft 128 kts 279°
2026-04-23 17:44 41.13935 -71.12080 3947 ft 130 kts 279°
2026-04-23 17:44 41.13906 -71.14476 3778 ft 132 kts 277°
2026-04-23 17:45 41.13849 -71.15701 3670 ft 134 kts 275°
2026-04-23 17:45 41.13598 -71.18147 3503 ft 136 kts 270°
2026-04-23 17:45 41.13501 -71.19382 3443 ft 132 kts 276°
2026-04-23 17:46 41.13397 -71.21790 3269 ft 134 kts 276°
2026-04-23 17:46 41.13345 -71.23016 3219 ft 132 kts 275°
2026-04-23 17:46 41.13255 -71.24251 3099 ft 136 kts 272°
2026-04-23 17:47 41.13127 -71.25474 3064 ft 133 kts 270°
2026-04-23 17:47 41.12961 -71.26688 2972 ft 134 kts 272°
2026-04-23 17:47 41.13152 -71.29056 2837 ft 126 kts 286°
2026-04-23 17:48 41.13277 -71.30205 2732 ft 128 kts 285°
2026-04-23 17:48 41.13399 -71.31374 2680 ft 127 kts 284°
2026-04-23 17:48 41.13456 -71.32546 2621 ft 128 kts 279°
2026-04-23 17:48 41.13481 -71.33738 2502 ft 131 kts 279°
2026-04-23 17:49 41.13523 -71.34914 2477 ft 125 kts 284°
2026-04-23 17:49 41.13735 -71.36037 2328 ft 127 kts 295°
2026-04-23 17:49 41.14105 -71.37095 2278 ft 123 kts 303°
2026-04-23 17:49 41.14489 -71.38099 2230 ft 122 kts 300°
2026-04-23 17:50 41.14881 -71.39119 2114 ft 124 kts 302°
2026-04-23 17:50 41.15684 -71.41106 1985 ft 124 kts 301°
2026-04-23 17:50 41.16043 -71.42168 1892 ft 125 kts 297°
2026-04-23 17:51 41.16357 -71.43220 1856 ft 124 kts 294°
2026-04-23 17:51 41.16607 -71.44325 1772 ft 126 kts 291°
2026-04-23 17:51 41.16958 -71.46596 1619 ft 128 kts 284°
2026-04-23 17:52 41.17086 -71.47762 1564 ft 126 kts 283°
2026-04-23 17:52 41.17144 -71.50079 1526 ft 123 kts 277°
2026-04-23 17:52 41.17139 -71.51222 1418 ft 117 kts 276°
2026-04-23 17:53 41.17086 -71.53020 1082 ft 89 kts 276°
2026-04-23 17:53 41.17058 -71.53826 905 ft 85 kts 274°
2026-04-23 17:53 41.17023 -71.54592 738 ft 81 kts 270°
2026-04-23 17:54 41.16991 -71.55259 586 ft 66 kts 272°
2026-04-23 17:54 41.16959 -71.55842 461 ft 58 kts 269°
2026-04-23 17:54 41.16880 -71.56876 201 ft 56 kts 262°
2026-04-23 17:55 41.16818 -71.57709 110 ft 26 kts 266°
2026-04-23 17:55 41.16853 -71.57808 114 ft 10 kts 319°
2026-04-23 17:55 41.16880 -71.57880 116 ft 9 kts 242°
2026-04-23 17:56 41.16871 -71.57954 117 ft 3 kts 269°
2026-04-23 17:56 41.16877 -71.57964 117 ft 0 kts 355°